Flag for Germany Weather past 2 weeks in Eschweiler, North Rhine-Westphalia, Germany

Now
61 °F

Overcast.


Feels Like: 61 °F
Forecast: 47 / 64 °F
Wind: 6 mph from Southwest

Location: Noervenich

Current Time: Aug 23, 2014 at 1:37:38 PM

Latest Report: Aug 23, 2014 at 1:00 PM


Visibility: 19 mi

Pressure: 29.93 "Hg

Humidity: 63%

Dew point: 49 °F

Location of EschweilerLocation

Historic Weather in Eschweiler — Graph

°F

Eschweiler temperature yesterday

Maximum temperature yesterday: 66 °F (at 3:00 PM)
Minimum temperature yesterday: 53 °F (at 7:00 AM)
Average temperature yesterday: 59 °F

Past Weeks' High & Low Weather Summary

 TemperatureHumidityPressure
High80 °F (Aug 8, 3:00 PM)96% (Aug 16, 1:00 AM)30.13 "Hg (Aug 16, 1:00 AM)
Low43 °F (Aug 20, 7:00 AM)44% (Aug 12, 2:00 PM)29.60 "Hg (Aug 10, 7:00 PM)
Average60 °F76%29.88 "Hg
* Reported Aug 8 12:00 Noon — Aug 23 12:00 Noon, Eschweiler, Weather by CustomWeather, © 2014

Note: Actual official high and low records may vary slightly from our data, if they occured in-between our weather recording intervals... More about our weather records

Advertising

Eschweiler weather history for previous 24 hours

 ConditionsComfort  
Time TempWeatherWind HumidityBarometerVisibility
12:00 PM
Aug 23
61 °FCool.6 mph67%29.94 "Hg16 mi
10:00 AM58 °FCool.1 mph82%29.93 "Hg10 mi
9:00 AM54 °FCool.1 mph88%29.93 "Hg11 mi
7:00 AM50 °FCool.N/A95%29.93 "Hg9 mi
6:00 AM49 °FCool.1 mph95%29.92 "Hg5 mi
4:00 AM54 °FCool.1 mph89%29.91 "Hg6 mi
3:00 AM54 °FCool.2 mph87%29.91 "Hg6 mi
1:00 AM55 °FCool.3 mph86%29.92 "Hg6 mi
12:00 AM56 °FCool.3 mph84%29.92 "Hg7 mi
10:00 PM
Aug 22
57 °FCool.2 mph81%29.91 "Hg4 mi
9:00 PM56 °FCool.1 mph86%29.90 "Hg7 mi
7:00 PM62 °FSprinkles. Overcast.8 mph61%29.89 "Hg12 mi
6:00 PM65 °FOvercast.5 mph56%29.87 "Hg16 mi
4:00 PM65 °FOvercast.5 mph51%29.87 "Hg22 mi
3:00 PM66 °FOvercast.5 mph55%29.88 "Hg22 mi
2:00 PM66 °FOvercast.6 mph48%29.88 "Hg16 mi
1:00 PM65 °FOvercast.2 mph53%29.90 "Hg25 mi
Weather by CustomWeather, © 2014

See weather overviewHow to use our weather pages